Time,TemperatureF,DewpointF,PressureIn,WindDirection,WindDirectionDegrees,WindSpeedMPH,WindSpeedGustMPH,Humidity,HourlyPrecipIn,Conditions,Clouds,dailyrainin,SoftwareType,DateUTC
2013-03-07 00:06:00,51.5,22.6,29.85,SE,146,3.0,5.0,32,0.00,,,0.00,Wunderground v.1.15,2013-03-07 07:06:00,
2013-03-07 00:11:00,51.4,22.5,29.85,SE,137,3.0,5.0,32,0.00,,,0.00,Wunderground v.1.15,2013-03-07 07:11:00,
2013-03-07 00:16:00,51.4,22.5,29.85,SE,135,4.0,5.0,32,0.00,,,0.00,Wunderground v.1.15,2013-03-07 07:16:00,
2013-03-07 00:26:00,51.5,21.8,29.85,South,179,3.0,9.0,31,0.00,,,0.00,Wunderground v.1.15,2013-03-07 07:26:00,
2013-03-07 00:31:00,51.4,21.0,29.85,SE,141,4.0,4.0,30,0.00,,,0.00,Wunderground v.1.15,2013-03-07 07:31:00,
2013-03-07 00:36:00,51.4,21.0,29.85,SSE,153,4.0,5.0,30,0.00,,,0.00,Wunderground v.1.15,2013-03-07 07:36:00,
2013-03-07 00:46:00,51.4,21.0,29.85,SSW,199,4.0,5.0,30,0.00,,,0.00,Wunderground v.1.15,2013-03-07 07:46:00,
2013-03-07 00:56:00,47.7,19.2,29.86,SSW,207,1.0,3.0,32,0.00,,,0.00,Wunderground v.1.15,2013-03-07 07:56:00,
2013-03-07 01:01:00,46.5,18.9,29.86,SSW,207,0.0,0.0,33,0.00,,,0.00,Wunderground v.1.15,2013-03-07 08:01:00,
2013-03-07 01:06:00,45.4,19.3,29.86,SSW,207,0.0,0.0,35,0.00,,,0.00,Wunderground v.1.15,2013-03-07 08:06:00,
2013-03-07 01:16:00,44.5,19.2,29.86,SSW,206,0.0,0.0,36,0.00,,,0.00,Wunderground v.1.15,2013-03-07 08:16:00,
2013-03-07 01:21:00,44.6,19.3,29.87,SSW,207,0.0,0.0,36,0.00,,,0.00,Wunderground v.1.15,2013-03-07 08:21:00,
2013-03-07 01:26:00,44.9,18.9,29.87,SSW,207,0.0,0.0,35,0.00,,,0.00,Wunderground v.1.15,2013-03-07 08:26:00,
2013-03-07 01:36:00,45.0,18.3,29.87,SSW,207,0.0,0.0,34,0.00,,,0.00,Wunderground v.1.15,2013-03-07 08:36:00,
2013-03-07 01:46:00,44.6,18.6,29.87,SSW,207,0.0,0.0,35,0.00,,,0.00,Wunderground v.1.15,2013-03-07 08:46:00,
2013-03-07 01:51:00,43.7,18.5,29.87,SSW,207,0.0,0.0,36,0.00,,,0.00,Wunderground v.1.15,2013-03-07 08:51:00,
2013-03-07 01:56:00,42.4,18.6,29.86,WSW,237,0.0,4.0,38,0.00,,,0.00,Wunderground v.1.15,2013-03-07 08:56:00,
2013-03-07 02:06:00,40.6,18.1,29.87,WSW,239,2.0,2.0,40,0.00,,,0.00,Wunderground v.1.15,2013-03-07 09:06:00,
2013-03-07 02:11:00,40.1,18.3,29.87,WSW,239,2.0,2.0,41,0.00,,,0.00,Wunderground v.1.15,2013-03-07 09:11:00,
2013-03-07 02:21:00,39.6,17.8,29.86,WSW,239,3.0,4.0,41,0.00,,,0.00,Wunderground v.1.15,2013-03-07 09:21:00,
2013-03-07 02:26:00,39.7,17.9,29.86,WSW,238,3.0,4.0,41,0.00,,,0.00,Wunderground v.1.15,2013-03-07 09:26:00,
2013-03-07 02:31:00,39.3,17.5,29.86,WSW,238,3.0,4.0,41,0.00,,,0.00,Wunderground v.1.15,2013-03-07 09:31:00,
2013-03-07 02:41:00,37.5,18.1,29.86,NW,315,5.0,5.0,45,0.00,,,0.00,Wunderground v.1.15,2013-03-07 09:41:00,
2013-03-07 02:51:00,36.6,17.2,29.86,NNE,14,6.0,6.0,45,0.00,,,0.00,Wunderground v.1.15,2013-03-07 09:51:00,
2013-03-07 02:56:00,36.4,17.1,29.86,NNE,14,6.0,6.0,45,0.00,,,0.00,Wunderground v.1.15,2013-03-07 09:56:00,
2013-03-07 03:01:00,36.3,17.0,29.86,NNE,24,6.0,6.0,45,0.00,,,0.00,Wunderground v.1.15,2013-03-07 10:01:00,
2013-03-07 03:06:00,36.2,17.9,29.86,NNE,12,6.0,6.0,47,0.00,,,0.00,Wunderground v.1.15,2013-03-07 10:06:00,
2013-03-07 03:16:00,36.0,17.2,29.86,NNE,26,7.0,7.0,46,0.00,,,0.00,Wunderground v.1.15,2013-03-07 10:16:00,
2013-03-07 03:21:00,35.9,17.6,29.86,NNW,346,6.0,9.0,47,0.00,,,0.00,Wunderground v.1.15,2013-03-07 10:21:00,
2013-03-07 03:31:00,35.2,17.4,29.86,NE,49,6.0,6.0,48,0.00,,,0.00,Wunderground v.1.15,2013-03-07 10:31:00,
2013-03-07 03:36:00,34.8,17.1,29.87,NNE,27,4.0,6.0,48,0.00,,,0.00,Wunderground v.1.15,2013-03-07 10:36:00,
2013-03-07 03:41:00,34.9,17.2,29.87,NE,54,3.0,5.0,48,0.00,,,0.00,Wunderground v.1.15,2013-03-07 10:41:00,
2013-03-07 03:51:00,34.8,17.1,29.87,NNE,31,2.0,5.0,48,0.00,,,0.00,Wunderground v.1.15,2013-03-07 10:51:00,
2013-03-07 03:56:00,35.2,17.4,29.88,NNE,18,4.0,5.0,48,0.00,,,0.00,Wunderground v.1.15,2013-03-07 10:56:00,
2013-03-07 04:01:00,35.5,17.2,29.88,NNE,18,5.0,5.0,47,0.00,,,0.00,Wunderground v.1.15,2013-03-07 11:01:00,
2013-03-07 04:11:00,35.3,17.1,29.88,North,355,5.0,5.0,47,0.00,,,0.00,Wunderground v.1.15,2013-03-07 11:11:00,
2013-03-07 04:21:00,34.4,17.2,29.88,North,5,4.0,4.0,49,0.00,,,0.00,Wunderground v.1.15,2013-03-07 11:21:00,
2013-03-07 04:26:00,34.1,17.4,29.88,NNE,30,4.0,4.0,50,0.00,,,0.00,Wunderground v.1.15,2013-03-07 11:26:00,
2013-03-07 04:31:00,34.1,17.4,29.88,NNE,30,4.0,4.0,50,0.00,,,0.00,Wunderground v.1.15,2013-03-07 11:31:00,
2013-03-07 04:41:00,34.1,16.9,29.89,NNE,30,1.0,5.0,49,0.00,,,0.00,Wunderground v.1.15,2013-03-07 11:41:00,
2013-03-07 04:46:00,33.7,16.5,29.88,NE,36,3.0,6.0,49,0.00,,,0.00,Wunderground v.1.15,2013-03-07 11:46:00,
2013-03-07 04:56:00,33.5,16.4,29.89,NNE,15,5.0,7.0,49,0.00,,,0.00,Wunderground v.1.15,2013-03-07 11:56:00,
2013-03-07 05:01:00,33.3,16.6,29.89,NNE,16,5.0,5.0,50,0.00,,,0.00,Wunderground v.1.15,2013-03-07 12:01:00,
2013-03-07 05:11:00,33.1,16.5,29.89,NNE,25,5.0,6.0,50,0.00,,,0.00,Wunderground v.1.15,2013-03-07 12:11:00,
2013-03-07 05:16:00,32.9,16.3,29.90,North,11,5.0,6.0,50,0.00,,,0.00,Wunderground v.1.15,2013-03-07 12:16:00,
2013-03-07 05:26:00,32.5,16.4,29.90,NNE,32,5.0,5.0,51,0.00,,,0.00,Wunderground v.1.15,2013-03-07 12:26:00,
2013-03-07 05:36:00,32.6,16.9,29.90,NNE,19,5.0,5.0,52,0.00,,,0.00,Wunderground v.1.15,2013-03-07 12:36:00,
2013-03-07 05:41:00,32.9,17.2,29.90,NE,35,5.0,5.0,52,0.00,,,0.00,Wunderground v.1.15,2013-03-07 12:41:00,
2013-03-07 05:51:00,32.5,16.4,29.90,North,9,4.0,4.0,51,0.00,,,0.00,Wunderground v.1.15,2013-03-07 12:51:00,
2013-03-07 06:01:00,31.9,16.7,29.91,NE,34,4.0,5.0,53,0.00,,,0.00,Wunderground v.1.15,2013-03-07 13:01:00,
2013-03-07 06:06:00,31.9,16.2,29.91,NE,54,4.0,5.0,52,0.00,,,0.00,Wunderground v.1.15,2013-03-07 13:06:00,
2013-03-07 06:16:00,31.6,16.4,29.91,NE,48,4.0,5.0,53,0.00,,,0.00,Wunderground v.1.15,2013-03-07 13:16:00,
2013-03-07 06:21:00,31.8,16.2,29.91,NE,42,4.0,4.0,52,0.00,,,0.00,Wunderground v.1.15,2013-03-07 13:21:00,
2013-03-07 06:31:00,31.5,15.9,29.91,NNE,24,5.0,5.0,52,0.00,,,0.00,Wunderground v.1.15,2013-03-07 13:31:00,
2013-03-07 06:36:00,31.2,15.6,29.92,NNE,32,5.0,5.0,52,0.00,,,0.00,Wunderground v.1.15,2013-03-07 13:36:00,
2013-03-07 06:46:00,31.0,15.8,29.92,NE,41,4.0,5.0,53,0.00,,,0.00,Wunderground v.1.15,2013-03-07 13:46:00,
2013-03-07 06:56:00,30.8,15.7,29.92,NNE,19,3.0,4.0,53,0.00,,,0.00,Wunderground v.1.15,2013-03-07 13:56:00,
2013-03-07 07:01:00,30.9,15.8,29.92,NNE,19,3.0,3.0,53,0.00,,,0.00,Wunderground v.1.15,2013-03-07 14:01:00,
2013-03-07 07:06:00,31.1,15.9,29.93,NNE,18,4.0,6.0,53,0.00,,,0.00,Wunderground v.1.15,2013-03-07 14:06:00,
2013-03-07 07:16:00,31.5,15.9,29.93,NNE,19,3.0,4.0,52,0.00,,,0.00,Wunderground v.1.15,2013-03-07 14:16:00,
2013-03-07 07:21:00,31.5,15.9,29.93,NNE,17,4.0,6.0,52,0.00,,,0.00,Wunderground v.1.15,2013-03-07 14:21:00,
2013-03-07 07:31:00,32.1,16.4,29.94,North,360,5.0,6.0,52,0.00,,,0.00,Wunderground v.1.15,2013-03-07 14:31:00,
2013-03-07 07:36:00,32.5,16.8,29.94,North,360,5.0,6.0,52,0.00,,,0.00,Wunderground v.1.15,2013-03-07 14:36:00,
2013-03-07 07:46:00,33.4,17.2,29.94,North,5,5.0,5.0,51,0.00,,,0.00,Wunderground v.1.15,2013-03-07 14:46:00,
2013-03-07 07:51:00,33.8,17.1,29.95,North,360,5.0,6.0,50,0.00,,,0.00,Wunderground v.1.15,2013-03-07 14:51:00,
2013-03-07 07:56:00,34.4,17.7,29.95,NNE,17,6.0,8.0,50,0.00,,,0.00,Wunderground v.1.15,2013-03-07 14:56:00,
2013-03-07 08:06:00,37.0,18.6,29.95,NE,38,5.0,6.0,47,0.00,,,0.00,Wunderground v.1.15,2013-03-07 15:06:00,
2013-03-07 08:11:00,38.4,18.9,29.95,North,360,6.0,6.0,45,0.00,,,0.00,Wunderground v.1.15,2013-03-07 15:11:00,
2013-03-07 08:16:00,39.5,19.4,29.95,North,9,7.0,10.0,44,0.00,,,0.00,Wunderground v.1.15,2013-03-07 15:16:00,
2013-03-07 08:26:00,41.0,19.6,29.95,North,5,9.0,9.0,42,0.00,,,0.00,Wunderground v.1.15,2013-03-07 15:26:00,
2013-03-07 08:31:00,41.8,19.8,29.95,NNE,26,8.0,8.0,41,0.00,,,0.00,Wunderground v.1.15,2013-03-07 15:31:00,
2013-03-07 08:41:00,42.8,20.1,29.95,NNE,18,7.0,8.0,40,0.00,,,0.00,Wunderground v.1.15,2013-03-07 15:41:00,
2013-03-07 08:51:00,43.8,20.4,29.95,NNE,32,6.0,6.0,39,0.00,,,0.00,Wunderground v.1.15,2013-03-07 15:51:00,
2013-03-07 08:56:00,44.6,20.5,29.95,North,5,6.0,6.0,38,0.00,,,0.00,Wunderground v.1.15,2013-03-07 15:56:00,
2013-03-07 09:01:00,44.9,20.2,29.95,North,11,7.0,7.0,37,0.00,,,0.00,Wunderground v.1.15,2013-03-07 16:01:00,
2013-03-07 09:11:00,46.3,20.8,29.95,North,5,5.0,5.0,36,0.00,,,0.00,Wunderground v.1.15,2013-03-07 16:11:00,
2013-03-07 09:16:00,46.9,21.3,29.95,North,5,5.0,5.0,36,0.00,,,0.00,Wunderground v.1.15,2013-03-07 16:16:00,
2013-03-07 09:26:00,48.1,21.0,29.94,NNE,26,4.0,5.0,34,0.00,,,0.00,Wunderground v.1.15,2013-03-07 16:26:00,
2013-03-07 09:31:00,49.1,21.2,29.94,NE,36,3.0,5.0,33,0.00,,,0.00,Wunderground v.1.15,2013-03-07 16:31:00,
2013-03-07 09:36:00,49.4,21.5,29.94,NNE,15,3.0,5.0,33,0.00,,,0.00,Wunderground v.1.15,2013-03-07 16:36:00,
2013-03-07 09:46:00,50.5,21.7,29.93,NE,55,3.0,4.0,32,0.00,,,0.00,Wunderground v.1.15,2013-03-07 16:46:00,
2013-03-07 09:56:00,51.7,20.4,29.93,NNE,24,3.0,5.0,29,0.00,,,0.00,Wunderground v.1.15,2013-03-07 16:56:00,
2013-03-07 10:01:00,51.9,20.6,29.93,NNE,24,3.0,4.0,29,0.00,,,0.00,Wunderground v.1.15,2013-03-07 17:01:00,
2013-03-07 10:06:00,52.5,21.1,29.93,NE,36,3.0,4.0,29,0.00,,,0.00,Wunderground v.1.15,2013-03-07 17:06:00,
2013-03-07 10:16:00,53.4,20.2,29.93,NNE,15,0.0,2.0,27,0.00,,,0.00,Wunderground v.1.15,2013-03-07 17:16:00,
2013-03-07 10:21:00,54.0,19.8,29.93,NNE,15,0.0,0.0,26,0.00,,,0.00,Wunderground v.1.15,2013-03-07 17:21:00,
2013-03-07 10:26:00,55.1,19.9,29.93,NNE,16,0.0,0.0,25,0.00,,,0.00,Wunderground v.1.15,2013-03-07 17:26:00,
2013-03-07 10:36:00,57.3,20.8,29.92,WSW,248,0.0,0.0,24,0.00,,,0.00,Wunderground v.1.15,2013-03-07 17:36:00,
2013-03-07 10:46:00,59.9,20.9,29.92,WSW,248,0.0,0.0,22,0.00,,,0.00,Wunderground v.1.15,2013-03-07 17:46:00,
2013-03-07 10:51:00,61.3,21.0,29.92,WSW,248,0.0,0.0,21,0.00,,,0.00,Wunderground v.1.15,2013-03-07 17:51:00,
2013-03-07 10:56:00,61.8,20.3,29.92,WSW,248,0.0,0.0,20,0.00,,,0.00,Wunderground v.1.15,2013-03-07 17:56:00,
2013-03-07 11:06:00,61.9,20.3,29.92,WSW,248,1.0,2.0,20,0.00,,,0.00,Wunderground v.1.15,2013-03-07 18:06:00,
2013-03-07 11:16:00,62.1,20.5,29.91,WSW,248,0.0,1.0,20,0.00,,,0.00,Wunderground v.1.15,2013-03-07 18:16:00,
2013-03-07 11:21:00,61.6,21.2,29.91,WSW,248,0.0,0.0,21,0.00,,,0.00,Wunderground v.1.15,2013-03-07 18:21:00,
2013-03-07 11:31:00,63.2,22.6,29.91,WSW,248,0.0,2.0,21,0.00,,,0.00,Wunderground v.1.15,2013-03-07 18:31:00,
2013-03-07 11:36:00,63.4,22.7,29.90,WSW,248,0.0,2.0,21,0.00,,,0.00,Wunderground v.1.15,2013-03-07 18:36:00,
2013-03-07 11:41:00,64.0,23.2,29.89,WSW,248,0.0,0.0,21,0.00,,,0.00,Wunderground v.1.15,2013-03-07 18:41:00,
2013-03-07 11:51:00,64.1,22.2,29.89,SE,136,4.0,5.0,20,0.00,,,0.00,Wunderground v.1.15,2013-03-07 18:51:00,
2013-03-07 11:56:00,63.6,21.7,29.89,South,169,4.0,5.0,20,0.00,,,0.00,Wunderground v.1.15,2013-03-07 18:56:00,
2013-03-07 12:01:00,63.5,21.7,29.89,SSW,206,4.0,4.0,20,0.00,,,0.00,Wunderground v.1.15,2013-03-07 19:01:00,
2013-03-07 12:11:00,64.0,22.1,29.88,WSW,249,3.0,3.0,20,0.00,,,0.00,Wunderground v.1.15,2013-03-07 19:11:00,
2013-03-07 12:16:00,64.6,22.6,29.88,South,175,2.0,3.0,20,0.00,,,0.00,Wunderground v.1.15,2013-03-07 19:16:00,
2013-03-07 12:21:00,65.1,21.8,29.87,WSW,248,3.0,4.0,19,0.00,,,0.00,Wunderground v.1.15,2013-03-07 19:21:00,
2013-03-07 12:31:00,65.3,21.9,29.86,SSE,149,4.0,4.0,19,0.00,,,0.00,Wunderground v.1.15,2013-03-07 19:31:00,
2013-03-07 12:36:00,64.8,21.5,29.86,SW,217,4.0,4.0,19,0.00,,,0.00,Wunderground v.1.15,2013-03-07 19:36:00,
2013-03-07 12:41:00,64.9,20.3,29.86,West,263,4.0,4.0,18,0.00,,,0.00,Wunderground v.1.15,2013-03-07 19:41:00,
2013-03-07 12:51:00,65.9,21.2,29.85,West,269,1.0,1.0,18,0.00,,,0.00,Wunderground v.1.15,2013-03-07 19:51:00,
2013-03-07 12:56:00,66.3,21.5,29.84,WSW,252,2.0,2.0,18,0.00,,,0.00,Wunderground v.1.15,2013-03-07 19:56:00,
2013-03-07 13:06:00,66.3,20.1,29.84,South,188,2.0,7.0,17,0.00,,,0.00,Wunderground v.1.15,2013-03-07 20:06:00,
2013-03-07 13:16:00,66.5,20.3,29.83,SSE,164,3.0,7.0,17,0.00,,,0.00,Wunderground v.1.15,2013-03-07 20:16:00,
2013-03-07 13:21:00,66.5,20.3,29.83,SW,219,3.0,3.0,17,0.00,,,0.00,Wunderground v.1.15,2013-03-07 20:21:00,
2013-03-07 13:26:00,66.4,20.2,29.83,SW,227,5.0,5.0,17,0.00,,,0.00,Wunderground v.1.15,2013-03-07 20:26:00,
2013-03-07 13:31:00,66.5,20.3,29.82,SSW,196,4.0,4.0,17,0.00,,,0.00,Wunderground v.1.15,2013-03-07 20:31:00,
2013-03-07 13:41:00,66.8,20.5,29.81,South,175,2.0,4.0,17,0.00,,,0.00,Wunderground v.1.15,2013-03-07 20:41:00,
2013-03-07 13:46:00,66.8,20.5,29.81,South,180,2.0,5.0,17,0.00,,,0.00,Wunderground v.1.15,2013-03-07 20:46:00,
2013-03-07 13:51:00,67.0,20.7,29.81,South,180,2.0,3.0,17,0.00,,,0.00,Wunderground v.1.15,2013-03-07 20:51:00,
2013-03-07 14:01:00,66.8,20.5,29.80,SSW,206,4.0,4.0,17,0.00,,,0.00,Wunderground v.1.15,2013-03-07 21:01:00,
2013-03-07 14:06:00,67.2,20.9,29.80,South,173,3.0,4.0,17,0.00,,,0.00,Wunderground v.1.15,2013-03-07 21:06:00,
2013-03-07 14:11:00,67.1,20.8,29.80,SSW,198,3.0,6.0,17,0.00,,,0.00,Wunderground v.1.15,2013-03-07 21:11:00,
2013-03-07 14:21:00,68.2,21.7,29.79,WSW,242,5.0,10.0,17,0.00,,,0.00,Wunderground v.1.15,2013-03-07 21:21:00,
2013-03-07 14:31:00,67.4,22.4,29.79,South,178,5.0,5.0,18,0.00,,,0.00,Wunderground v.1.15,2013-03-07 21:31:00,
2013-03-07 14:41:00,67.9,22.8,29.79,SSW,211,4.0,5.0,18,0.00,,,0.00,Wunderground v.1.15,2013-03-07 21:41:00,
2013-03-07 14:46:00,67.9,22.8,29.78,SSE,168,4.0,7.0,18,0.00,,,0.00,Wunderground v.1.15,2013-03-07 21:46:00,
2013-03-07 14:51:00,68.1,23.0,29.78,South,191,3.0,3.0,18,0.00,,,0.00,Wunderground v.1.15,2013-03-07 21:51:00,
2013-03-07 14:56:00,68.3,21.8,29.78,SSW,203,1.0,5.0,17,0.00,,,0.00,Wunderground v.1.15,2013-03-07 21:56:00,
2013-03-07 15:01:00,68.6,22.0,29.78,SSW,213,3.0,4.0,17,0.00,,,0.00,Wunderground v.1.15,2013-03-07 22:01:00,
2013-03-07 15:11:00,68.6,22.0,29.77,SW,217,4.0,4.0,17,0.00,,,0.00,Wunderground v.1.15,2013-03-07 22:11:00,
2013-03-07 15:16:00,68.9,20.8,29.77,South,180,5.0,11.0,16,0.00,,,0.00,Wunderground v.1.15,2013-03-07 22:16:00,
2013-03-07 15:21:00,68.8,22.2,29.77,West,268,6.0,6.0,17,0.00,,,0.00,Wunderground v.1.15,2013-03-07 22:21:00,
2013-03-07 15:31:00,68.9,22.2,29.77,SW,219,4.0,4.0,17,0.00,,,0.00,Wunderground v.1.15,2013-03-07 22:31:00,
2013-03-07 15:36:00,69.4,21.2,29.76,SE,129,3.0,5.0,16,0.00,,,0.00,Wunderground v.1.15,2013-03-07 22:36:00,
2013-03-07 15:46:00,68.6,22.0,29.76,SSW,210,5.0,7.0,17,0.00,,,0.00,Wunderground v.1.15,2013-03-07 22:46:00,
2013-03-07 15:56:00,68.9,22.2,29.76,SSW,198,6.0,8.0,17,0.00,,,0.00,Wunderground v.1.15,2013-03-07 22:56:00,
2013-03-07 16:01:00,69.3,22.6,29.75,SSW,203,7.0,8.0,17,0.00,,,0.00,Wunderground v.1.15,2013-03-07 23:01:00,
2013-03-07 16:06:00,69.3,22.6,29.75,South,171,7.0,8.0,17,0.00,,,0.00,Wunderground v.1.15,2013-03-07 23:06:00,
2013-03-07 16:16:00,69.0,22.3,29.75,SSW,213,5.0,6.0,17,0.00,,,0.00,Wunderground v.1.15,2013-03-07 23:16:00,
2013-03-07 16:21:00,69.2,22.5,29.75,SSW,192,4.0,4.0,17,0.00,,,0.00,Wunderground v.1.15,2013-03-07 23:21:00,
2013-03-07 16:31:00,68.7,22.1,29.74,SE,138,4.0,4.0,17,0.00,,,0.00,Wunderground v.1.15,2013-03-07 23:31:00,
2013-03-07 16:36:00,69.0,22.3,29.74,SSW,202,4.0,5.0,17,0.00,,,0.00,Wunderground v.1.15,2013-03-07 23:36:00,
2013-03-07 16:46:00,68.8,22.2,29.74,WSW,250,3.0,3.0,17,0.00,,,0.00,Wunderground v.1.15,2013-03-07 23:46:00,
2013-03-07 16:51:00,68.3,23.1,29.74,WSW,246,2.0,2.0,18,0.00,,,0.00,Wunderground v.1.15,2013-03-07 23:51:00,
2013-03-07 16:56:00,68.0,22.9,29.74,WSW,246,0.0,2.0,18,0.00,,,0.00,Wunderground v.1.15,2013-03-07 23:56:00,
2013-03-07 17:01:00,67.7,22.6,29.74,SW,231,0.0,0.0,18,0.00,,,0.00,Wunderground v.1.15,2013-03-08 00:01:00,
2013-03-07 17:11:00,67.4,22.4,29.74,SW,230,0.0,0.0,18,0.00,,,0.00,Wunderground v.1.15,2013-03-08 00:11:00,
2013-03-07 17:16:00,67.3,22.3,29.73,SW,230,0.0,0.0,18,0.00,,,0.00,Wunderground v.1.15,2013-03-08 00:16:00,
2013-03-07 17:26:00,67.2,22.2,29.73,WSW,257,0.0,2.0,18,0.00,,,0.00,Wunderground v.1.15,2013-03-08 00:26:00,
2013-03-07 17:31:00,67.0,23.3,29.73,WSW,257,1.0,1.0,19,0.00,,,0.00,Wunderground v.1.15,2013-03-08 00:31:00,
2013-03-07 17:41:00,66.9,23.3,29.73,WSW,257,0.0,0.0,19,0.00,,,0.00,Wunderground v.1.15,2013-03-08 00:41:00,
2013-03-07 17:46:00,66.9,23.3,29.73,WSW,257,1.0,2.0,19,0.00,,,0.00,Wunderground v.1.15,2013-03-08 00:46:00,
2013-03-07 17:56:00,66.9,23.3,29.72,WSW,257,1.0,3.0,19,0.00,,,0.00,Wunderground v.1.15,2013-03-08 00:56:00,
2013-03-07 18:01:00,66.8,23.2,29.72,WSW,258,0.0,0.0,19,0.00,,,0.00,Wunderground v.1.15,2013-03-08 01:01:00,
2013-03-07 18:06:00,66.5,22.9,29.72,West,260,0.0,0.0,19,0.00,,,0.00,Wunderground v.1.15,2013-03-08 01:06:00,
2013-03-07 18:16:00,66.4,22.8,29.72,WNW,300,0.0,0.0,19,0.00,,,0.00,Wunderground v.1.15,2013-03-08 01:16:00,
2013-03-07 18:21:00,66.2,22.7,29.72,WNW,301,0.0,0.0,19,0.00,,,0.00,Wunderground v.1.15,2013-03-08 01:21:00,
2013-03-07 18:31:00,65.6,23.4,29.73,WNW,300,0.0,0.0,20,0.00,,,0.00,Wunderground v.1.15,2013-03-08 01:31:00,
2013-03-07 18:36:00,65.3,23.2,29.73,WNW,300,0.0,0.0,20,0.00,,,0.00,Wunderground v.1.15,2013-03-08 01:36:00,
2013-03-07 18:41:00,65.0,22.9,29.73,WNW,301,0.0,0.0,20,0.00,,,0.00,Wunderground v.1.15,2013-03-08 01:41:00,
2013-03-07 18:46:00,64.9,22.8,29.73,WNW,301,0.0,0.0,20,0.00,,,0.00,Wunderground v.1.15,2013-03-08 01:46:00,
2013-03-07 18:56:00,64.8,22.7,29.73,WNW,301,0.0,0.0,20,0.00,,,0.00,Wunderground v.1.15,2013-03-08 01:56:00,
2013-03-07 19:01:00,64.7,22.7,29.74,WNW,300,0.0,0.0,20,0.00,,,0.00,Wunderground v.1.15,2013-03-08 02:01:00,
2013-03-07 19:11:00,65.1,20.5,29.74,SSE,168,0.0,0.0,18,0.00,,,0.00,Wunderground v.1.15,2013-03-08 02:11:00,
2013-03-07 19:16:00,65.6,20.9,29.74,SSW,194,2.0,4.0,18,0.00,,,0.00,Wunderground v.1.15,2013-03-08 02:16:00,
2013-03-07 19:26:00,65.3,20.7,29.74,SSE,167,4.0,5.0,18,0.00,,,0.00,Wunderground v.1.15,2013-03-08 02:26:00,
2013-03-07 19:31:00,65.1,20.5,29.74,SSW,192,5.0,6.0,18,0.00,,,0.00,Wunderground v.1.15,2013-03-08 02:31:00,
2013-03-07 19:41:00,64.7,20.2,29.73,SE,144,6.0,6.0,18,0.00,,,0.00,Wunderground v.1.15,2013-03-08 02:41:00,
2013-03-07 19:46:00,64.7,20.2,29.73,South,180,8.0,12.0,18,0.00,,,0.00,Wunderground v.1.15,2013-03-08 02:46:00,
2013-03-07 19:51:00,64.7,20.2,29.74,South,173,8.0,8.0,18,0.00,,,0.00,Wunderground v.1.15,2013-03-08 02:51:00,
2013-03-07 19:56:00,64.8,20.2,29.74,SE,141,9.0,9.0,18,0.00,,,0.00,Wunderground v.1.15,2013-03-08 02:56:00,
2013-03-07 20:06:00,64.9,20.3,29.74,SSE,157,9.0,10.0,18,0.00,,,0.00,Wunderground v.1.15,2013-03-08 03:06:00,
2013-03-07 20:11:00,64.8,20.2,29.74,SSE,157,8.0,11.0,18,0.00,,,0.00,Wunderground v.1.15,2013-03-08 03:11:00,
2013-03-07 20:21:00,64.6,20.1,29.74,SE,142,10.0,10.0,18,0.00,,,0.00,Wunderground v.1.15,2013-03-08 03:21:00,
2013-03-07 20:26:00,64.4,19.9,29.74,South,169,10.0,14.0,18,0.00,,,0.00,Wunderground v.1.15,2013-03-08 03:26:00,
2013-03-07 20:31:00,64.2,21.0,29.74,SE,130,10.0,11.0,19,0.00,,,0.00,Wunderground v.1.15,2013-03-08 03:31:00,
2013-03-07 20:41:00,63.8,20.7,29.75,South,178,10.0,10.0,19,0.00,,,0.00,Wunderground v.1.15,2013-03-08 03:41:00,
2013-03-07 20:46:00,63.5,20.5,29.75,SSE,152,9.0,17.0,19,0.00,,,0.00,Wunderground v.1.15,2013-03-08 03:46:00,
2013-03-07 20:56:00,63.1,20.1,29.75,South,173,11.0,11.0,19,0.00,,,0.00,Wunderground v.1.15,2013-03-08 03:56:00,
2013-03-07 21:01:00,62.8,21.1,29.75,South,169,9.0,9.0,20,0.00,,,0.00,Wunderground v.1.15,2013-03-08 04:01:00,
2013-03-07 21:06:00,62.4,20.8,29.75,SSE,153,7.0,11.0,20,0.00,,,0.00,Wunderground v.1.15,2013-03-08 04:06:00,
2013-03-07 21:16:00,61.9,20.3,29.75,SSE,164,7.0,11.0,20,0.00,,,0.00,Wunderground v.1.15,2013-03-08 04:16:00,
2013-03-07 21:21:00,61.6,20.1,29.75,South,180,8.0,8.0,20,0.00,,,0.00,Wunderground v.1.15,2013-03-08 04:21:00,
2013-03-07 21:31:00,60.7,20.5,29.76,SSW,202,8.0,8.0,21,0.00,,,0.00,Wunderground v.1.15,2013-03-08 04:31:00,
2013-03-07 21:36:00,60.3,21.2,29.76,SSW,200,7.0,8.0,22,0.00,,,0.00,Wunderground v.1.15,2013-03-08 04:36:00,
2013-03-07 21:41:00,59.7,20.7,29.76,South,171,7.0,7.0,22,0.00,,,0.00,Wunderground v.1.15,2013-03-08 04:41:00,
2013-03-07 21:51:00,59.0,21.2,29.77,SSW,198,5.0,5.0,23,0.00,,,0.00,Wunderground v.1.15,2013-03-08 04:51:00,
2013-03-07 22:01:00,58.4,20.7,29.77,SSW,196,7.0,7.0,23,0.00,,,0.00,Wunderground v.1.15,2013-03-08 05:01:00,
2013-03-07 22:06:00,58.1,20.4,29.77,SSE,161,7.0,8.0,23,0.00,,,0.00,Wunderground v.1.15,2013-03-08 05:06:00,
2013-03-07 22:16:00,57.9,20.3,29.77,SSE,167,7.0,8.0,23,0.00,,,0.00,Wunderground v.1.15,2013-03-08 05:16:00,
2013-03-07 22:21:00,58.0,20.4,29.78,South,175,7.0,7.0,23,0.00,,,0.00,Wunderground v.1.15,2013-03-08 05:21:00,
2013-03-07 22:26:00,57.9,20.3,29.78,South,190,8.0,8.0,23,0.00,,,0.00,Wunderground v.1.15,2013-03-08 05:26:00,
2013-03-07 22:36:00,57.8,19.1,29.79,SSW,192,8.0,9.0,22,0.00,,,0.00,Wunderground v.1.15,2013-03-08 05:36:00,
2013-03-07 22:41:00,57.7,20.1,29.79,SSE,153,3.0,4.0,23,0.00,,,0.00,Wunderground v.1.15,2013-03-08 05:41:00,
2013-03-07 22:51:00,57.1,19.6,29.79,SE,142,5.0,7.0,23,0.00,,,0.00,Wunderground v.1.15,2013-03-08 05:51:00,
2013-03-07 22:56:00,56.8,20.3,29.80,SSE,150,6.0,9.0,24,0.00,,,0.00,Wunderground v.1.15,2013-03-08 05:56:00,
2013-03-07 23:01:00,56.6,20.2,29.80,SE,137,7.0,7.0,24,0.00,,,0.00,Wunderground v.1.15,2013-03-08 06:01:00,
2013-03-07 23:11:00,56.2,18.8,29.80,SSE,167,6.0,7.0,23,0.00,,,0.00,Wunderground v.1.15,2013-03-08 06:11:00,
2013-03-07 23:16:00,56.0,18.7,29.81,SSE,149,7.0,7.0,23,0.00,,,0.00,Wunderground v.1.15,2013-03-08 06:16:00,
2013-03-07 23:26:00,55.5,19.2,29.81,SE,132,5.0,6.0,24,0.00,,,0.00,Wunderground v.1.15,2013-03-08 06:26:00,
2013-03-07 23:31:00,55.2,19.9,29.81,SSE,153,4.0,6.0,25,0.00,,,0.00,Wunderground v.1.15,2013-03-08 06:31:00,
2013-03-07 23:41:00,55.5,19.2,29.82,SSE,151,6.0,6.0,24,0.00,,,0.00,Wunderground v.1.15,2013-03-08 06:41:00,
2013-03-07 23:46:00,55.5,19.2,29.82,SE,133,5.0,7.0,24,0.00,,,0.00,Wunderground v.1.15,2013-03-08 06:46:00,
2013-03-07 23:51:00,55.5,19.2,29.82,SSE,150,5.0,6.0,24,0.00,,,0.00,Wunderground v.1.15,2013-03-08 06:51:00,